RH
33 18 8 5 4 5 4 4 4 4 5 6 6 5 5 15 73 89 92 95 94 95 93 96 96 97 98 99 100 100 100 98 86 99 88 90 100 99 98 95 100 91 77
30 17 9 4 4 4 4 4 4 4 6 6 5 4 4 5 15 49 76 86 94 92 96 95 96 97 97 98 99 99 100 100 99 100 100 100 100 100 100 100 100 99 99
26 15 6 4 4 4 4 4 4 5 7 8 7 4 4 4 8 10 14 24 42 74 92 96 96 96 96 97 98 99 100 100 100 100 100 100 100 100 100 100 100 100 99
18 7 5 4 4 4 5 4 4 6 8 10 8 5 5 6 8 9 11 16 18 20 22 56 95 97 96 97 97 98 98 99 100 100 99 100 100 100 100 100 100 100 99
9 5 4 4 4 7 6 5 4 6 8 11 10 7 5 6 9 11 10 10 14 14 15 18 21 56 99 98 97 97 98 98 98 98 98 99 99 100 99 100 100 100 100
7 5 5 5 6 8 5 5 4 5 7 12 9 7 5 6 9 12 11 9 10 11 11 14 14 12 9 11 37 74 94 97 97 97 93 93 96 97 97 97 99 99 99
11 6 5 5 7 9 6 5 5 5 6 9 8 7 6 7 8 13 16 11 8 10 13 11 11 15 12 11 10 6 7 11 15 23 30 34 28 50 81 82 53 39 69
10 7 6 6 10 10 8 9 9 8 7 8 10 9 8 9 13 16 19 16 14 12 17 15 15 13 12 10 8 8 7 8 13 14 13 23 24 24 15 19 32 20 14
10 9 8 9 12 14 18 22 27 29 17 12 13 15 18 16 19 23 21 19 16 18 15 18 15 16 17 14 9 9 11 14 15 16 18 22 19 18 20 18 14 19 15
16 15 14 13 18 24 31 41 43 54 35 24 20 24 27 32 36 29 26 24 19 19 17 16 11 13 13 12 9 10 9 17 18 15 12 9 9 8 8 8 12 9 11
21 22 22 20 24 35 49 58 64 70 67 42 19 16 20 24 46 48 32 24 26 21 19 20 26 12 10 10 10 10 12 14 11 9 9 8 8 8 8 10 11 11 14
29 27 27 27 33 44 60 73 84 82 76 61 30 16 18 24 22 45 48 39 34 23 21 23 19 15 10 10 11 15 13 10 9 8 8 8 10 12 15 19 22 22 21
35 31 30 30 36 53 70 85 88 89 86 72 39 16 15 23 30 34 42 45 38 30 26 24 22 18 15 12 12 14 13 11 10 9 11 13 15 18 20 18 19 20 18
39 38 28 26 31 45 68 90 96 91 86 76 43 14 14 20 26 32 31 33 30 30 28 24 20 18 15 15 15 14 14 14 15 15 16 17 17 15 15 17 16 15 15
46 40 30 30 40 57 78 89 93 96 90 68 31 12 14 27 40 33 25 22 23 24 29 24 18 16 15 14 14 16 17 17 18 20 19 18 18 19 20 22 22 22 22
44 32 25 28 50 72 78 85 97 97 80 47 17 13 19 36 82 73 42 19 19 22 26 17 14 15 14 15 15 16 16 17 20 22 23 24 25 29 33 33 32 30 30
35 23 21 35 54 63 68 58 59 37 27 17 15 18 37 36 79 63 28 20 22 23 23 17 16 17 17 17 17 17 19 21 24 24 25 25 26 27 28 29 28 27 27
26 22 20 30 50 67 68 24 37 48 44 46 35 34 50 33 35 28 24 25 23 22 20 20 19 19 19 19 19 20 21 23 24 26 27 27 28 31 35 39 44 44 42
26 25 24 38 56 63 60 53 87 86 80 78 60 42 51 65 23 34 32 28 23 21 20 21 21 20 20 20 21 22 23 24 27 29 30 30 32 36 47 54 61 62 57
33 30 31 44 69 82 87 96 98 97 95 86 85 78 64 52 44 37 36 29 23 22 21 22 22 22 22 23 24 26 26 28 31 32 34 35 37 40 52 67 73 74 71
46 39 47 62 87 90 94 94 95 98 94 90 90 91 90 70 59 46 42 32 28 26 25 25 25 25 26 27 27 28 28 29 33 36 39 41 44 50 58 80 86 87 82
50 45 71 86 84 88 92 94 97 97 92 93 91 91 82 64 50 48 47 39 34 30 29 29 30 30 31 31 31 31 32 34 38 42 46 46 48 54 63 80 88 89 86
50 62 77 87 82 85 94 96 97 90 91 92 95 88 72 60 53 55 51 44 41 35 33 33 34 34 35 35 35 34 35 37 39 42 46 50 52 55 65 76 83 86 86
91 82 80 86 92 94 95 95 89 93 95 92 86 70 68 60 60 71 56 51 46 40 36 36 37 38 39 40 40 39 39 43 46 46 49 52 54 57 62 76 90 92 92
96 96 96 97 98 95 89 91 94 89 79 64 68 90 78 82 87 76 72 56 50 44 39 40 42 42 44 46 44 43 44 47 48 50 54 55 57 59 62 70 82 92 98
97 95 93 94 95 90 91 89 88 87 71 76 96 80 93 95 79 92 71 58 52 46 42 42 45 46 49 49 48 47 47 49 50 54 57 58 61 65 67 71 79 92 97
Wind_Speed
10 10 10 11 10 10 12 14 14 15 15 16 18 19 20 19 18 17 18 20 22 21 21 22 16 8 3 7 7 9 10 8 9 13 13 10 9 7 5 6 5 8 6
10 9 10 9 8 9 10 10 11 12 13 14 16 18 20 20 19 17 17 19 21 26 28 28 25 16 9 5 5 8 11 13 6 19 13 9 11 10 6 5 4 5 5
11 10 10 7 6 7 7 8 9 10 10 12 13 16 18 20 20 19 18 19 19 21 26 30 31 26 19 14 11 9 8 8 8 12 13 12 16 15 15 11 8 7 4
14 12 9 6 5 4 4 5 7 8 9 10 12 13 15 17 20 19 18 19 20 22 24 26 28 32 28 21 17 16 14 17 18 18 18 14 15 13 11 13 12 9 9
14 11 7 5 4 2 2 4 7 8 8 9 10 10 13 14 19 19 19 19 20 22 25 27 27 27 27 27 26 22 19 20 20 21 21 19 19 16 12 9 12 11 11
13 9 7 5 4 2 1 3 6 7 8 8 8 9 11 14 16 17 18 19 21 23 25 26 27 28 27 27 27 26 25 24 24 23 24 25 22 19 16 16 6 6 3
12 10 8 7 6 5 3 3 4 5 7 7 9 8 10 13 14 15 16 17 19 22 23 24 26 27 27 27 27 26 29 29 28 26 25 25 21 16 12 12 16 15 15
14 12 10 9 9 7 5 4 2 3 4 6 8 8 9 12 13 14 14 15 17 20 23 22 23 24 24 23 22 24 25 27 26 25 23 22 20 17 15 13 10 15 16
16 13 12 11 10 9 7 5 3 2 3 5 7 7 8 9 11 12 12 14 16 19 20 21 21 22 22 21 21 23 24 26 23 21 20 18 16 16 16 11 13 6 6
16 14 12 12 11 9 8 6 4 3 3 5 4 5 7 8 7 8 10 12 14 17 18 20 20 19 18 19 20 20 22 22 18 16 17 17 17 17 17 18 18 18 17
15 14 13 12 11 11 9 7 4 1 1 3 3 3 3 5 7 7 9 11 14 14 16 18 20 18 17 18 18 20 22 16 15 15 16 17 17 18 19 19 19 19 19
15 14 13 13 13 13 12 10 8 5 2 1 2 3 3 4 6 8 8 10 11 12 15 15 15 15 16 16 18 18 16 14 14 15 16 19 20 20 19 17 16 16 17
16 15 14 14 15 15 15 13 11 9 5 3 2 1 1 3 4 5 6 7 8 9 12 13 13 13 14 14 15 15 14 15 16 16 18 19 18 17 14 12 11 10 10
16 16 15 15 15 15 15 13 12 10 8 6 5 3 1 0 1 2 4 5 7 7 9 9 10 11 12 13 13 14 16 16 17 18 17 16 15 15 16 15 14 12 11
18 18 17 17 16 16 15 12 12 11 10 7 6 4 3 3 1 3 3 4 5 6 7 7 6 7 9 11 12 13 14 14 15 16 16 16 15 15 16 16 17 17 19
21 21 21 19 18 17 16 16 16 14 12 10 8 5 5 5 3 3 2 4 5 5 5 5 7 8 9 11 12 13 13 13 15 15 14 14 14 15 16 17 18 20 21
23 23 22 21 19 17 16 16 15 14 13 10 9 7 6 7 7 5 4 4 5 5 6 7 7 8 10 11 12 12 13 14 14 14 14 14 13 13 14 15 17 17 19
24 23 22 21 20 18 16 15 13 10 10 10 10 9 6 4 4 2 2 4 5 5 6 6 7 8 9 10 11 12 12 12 13 13 14 14 13 13 13 14 15 17 18
24 24 21 19 18 16 16 16 13 12 11 9 7 6 7 8 2 4 3 3 4 5 6 6 7 9 9 10 11 12 12 13 13 14 14 13 12 11 10 11 12 13 16
23 22 21 19 19 18 18 17 15 14 13 11 10 8 8 10 7 8 6 5 5 6 7 7 7 8 9 10 11 11 12 12 12 12 13 13 12 11 10 10 10 12 14
23 23 21 20 20 18 18 17 16 15 14 13 11 10 8 8 10 9 8 7 6 6 6 7 8 9 9 10 11 11 11 12 12 13 13 12 12 10 9 9 10 10 12
20 23 22 21 18 18 17 17 16 15 13 13 13 12 10 10 9 9 9 8 8 7 7 7 8 9 10 10 11 11 11 12 12 13 13 13 12 11 10 10 11 11 12
17 20 20 21 18 17 17 16 16 15 14 13 14 13 11 10 9 9 8 8 8 8 8 8 9 10 11 11 12 12 12 12 14 14 14 13 12 12 12 11 12 12 13
14 17 18 19 19 19 18 15 15 14 13 14 14 13 11 10 9 10 9 10 10 9 9 9 10 11 11 11 12 13 13 14 15 15 15 14 14 14 14 13 14 14 15
15 16 17 17 19 18 16 14 14 13 13 13 12 11 11 11 11 10 11 11 11 10 11 10 11 12 12 12 12 13 13 15 16 16 16 15 15 15 16 16 17 17 16
16 15 14 15 15 15 14 13 13 13 12 12 10 10 11 11 11 11 12 12 12 12 12 12 12 12 12 12 13 14 15 15 16 16 16 16 16 16 17 18 18 18 18
Wind_Direction
281 298 314 328 337 350 353 359 3 11 12 15 15 20 22 21 19 23 28 35 34 36 36 35 25 8 322 250 237 183 199 217 234 227 238 243 240 226 249 254 271 283 290
274 292 302 314 328 345 349 2 7 13 16 16 19 23 27 27 26 25 30 35 41 44 45 44 41 40 52 83 164 182 194 203 191 179 161 159 157 157 165 171 133 106 83
268 275 282 297 316 334 345 5 14 25 19 23 23 27 32 33 32 32 34 39 42 44 51 50 47 48 55 71 95 131 150 174 201 170 148 143 128 137 116 113 114 109 127
253 258 269 287 299 313 355 13 30 36 31 28 30 36 39 40 42 40 39 46 48 50 52 54 55 54 55 63 78 95 106 110 114 113 112 110 112 114 128 120 101 103 96
243 249 254 262 268 281 27 35 44 42 39 35 35 40 46 46 48 46 49 50 54 54 55 55 55 59 65 68 71 76 90 95 96 94 88 86 86 85 83 116 134 96 89
234 235 240 242 246 205 163 70 57 49 48 47 46 50 54 52 48 47 48 55 57 58 58 60 60 59 63 67 76 79 78 76 81 82 81 76 73 75 74 77 128 173 140
224 226 226 227 220 206 186 97 72 58 53 57 55 55 59 60 53 48 45 51 58 61 60 61 61 59 57 62 65 70 77 74 73 76 78 73 72 64 68 70 65 69 75
220 218 217 214 211 206 192 158 120 76 64 60 61 57 55 57 50 47 46 46 55 60 61 58 62 62 61 58 62 66 65 71 67 66 67 71 66 61 55 63 79 75 66
215 213 208 205 206 205 193 187 163 114 81 63 57 54 55 62 51 46 40 47 50 55 59 57 56 60 60 55 53 57 61 60 57 57 61 67 71 71 68 74 70 71 78
212 210 205 203 202 198 194 194 184 117 84 73 63 57 53 55 59 58 48 50 54 57 56 58 59 61 62 60 59 62 64 65 63 63 61 58 52 50 47 45 47 46 48
208 206 204 201 195 190 191 198 202 172 68 63 55 53 50 45 55 54 53 50 52 56 56 57 55 59 62 61 60 59 60 63 64 62 60 58 53 47 44 39 35 33 33
206 206 205 203 196 195 199 209 219 226 257 354 26 37 53 54 54 60 55 45 41 44 50 49 51 50 52 59 59 63 63 58 57 56 55 54 51 49 45 38 33 28 23
205 207 208 206 207 208 211 215 221 231 242 281 298 318 37 64 58 52 50 37 36 29 36 35 39 42 48 50 58 58 57 55 54 52 53 53 53 55 57 50 39 31 22
213 213 215 215 213 212 210 212 224 232 242 257 255 255 227 88 4 14 6 19 31 29 29 28 32 33 36 40 40 40 41 42 42 44 44 42 38 37 35 37 36 33 24
218 220 217 215 213 211 210 218 223 231 238 246 238 221 203 197 307 5 24 42 27 23 21 16 22 30 33 37 34 33 33 32 33 33 29 26 26 25 26 23 22 20 18
220 219 219 213 209 210 216 215 214 221 232 223 217 206 197 163 178 258 303 23 24 13 5 1 15 22 20 26 25 25 23 20 21 20 18 17 17 17 18 17 17 18 17
222 219 217 211 211 213 213 214 209 201 202 204 200 191 187 201 197 250 314 3 11 1 347 359 5 11 14 15 14 14 14 12 9 4 6 6 6 3 2 3 4 7 10
220 219 221 215 212 213 212 206 208 215 207 193 190 192 195 217 180 282 315 322 335 337 334 346 355 1 3 3 4 4 4 1 357 357 357 356 355 353 354 356 0 5 8
218 218 217 216 216 216 210 211 220 219 218 216 207 200 201 245 262 334 336 320 310 314 325 337 344 346 348 353 355 355 354 350 349 349 349 347 346 344 342 345 351 358 2
218 219 218 213 211 208 209 218 224 225 228 228 225 227 228 248 282 310 321 316 308 306 316 327 331 333 337 344 345 343 343 340 339 341 341 339 336 334 328 327 335 345 355
218 213 213 208 208 214 218 222 228 234 237 234 236 246 256 261 268 283 291 297 301 304 309 314 324 326 332 336 333 333 335 333 334 337 335 331 328 329 315 311 321 329 339
212 207 203 206 210 217 220 226 232 235 234 234 236 243 255 257 262 272 283 292 299 302 307 311 318 320 325 326 326 329 332 329 329 333 328 323 318 318 311 301 305 315 322
205 205 212 210 214 217 221 230 237 235 233 234 238 247 255 259 265 276 286 291 297 304 307 309 315 315 319 321 323 326 326 325 326 328 327 321 314 309 306 299 301 304 311
203 206 209 212 218 223 226 228 229 230 236 239 242 246 251 258 265 278 287 289 293 298 302 304 310 311 315 319 321 322 324 326 324 325 324 320 315 306 303 298 295 299 305
210 216 219 221 224 224 220 221 228 232 237 239 236 245 251 255 265 271 278 283 287 294 298 302 306 308 314 315 316 317 320 321 321 321 321 320 315 306 301 298 297 297 299
217 213 209 217 216 214 219 226 228 237 237 233 247 247 252 260 262 270 276 278 283 291 294 299 302 306 308 309 314 314 318 318 320 321 320 319 315 307 300 296 294 294 294